Tracking 35237 objects as of 5-Sep-2026
HD Live streaming from Space Station
objects crossing your sky now

STARLINK-33644

Track STARLINK-33644 now!
10-day predictions
STARLINK-33644 is classified as:


NORAD ID: 63414
Int'l Code: 2025-065R
Launch date: March 31, 2025
Source: United States (US)
Launch site: AIR FORCE EASTERN TEST RANGE (AFETR)
Your satellite tracking list
Your tracking list is empty




NASA's NSSDC Master Catalog

Two Line Element Set (TLE):
1 63414U 25065R   26248.17186570  .00009737  00000-0  36288-3 0  9999
2 63414  43.0009 173.9052 0001296 273.3283  86.7421 15.27579279 80289
Source of the keplerian elements: AFSPC